Torna al catalogo

UME 2

ISS-B

AttivoScienzaLEO
NORAD 10674·PAYLOAD·🇯🇵 Japan

Lanciato Feb 16, 1978 da Tanegashima Space Center

Loading…

Prossimi Passaggi (prossime 24 ore)

TLE

AggiornatoSource: Space-Track

Epoca: Sep 14, 2026, 11:07 UTC

1 10674U 78018A   26257.46358052 -.00000058  00000-0 -13013-4 0  9994
2 10674  69.3615  71.2530 0163814   6.3271  12.6709 13.43717134382631

Traccia UME 2 in tempo reale con AllMySat

Download on the App Store